Weather History for St. Paul Lake Elmo, MN

Change the Weather History Date:

Thursday, July 4, 2013

  Actual Average (KSTP) Record (KSTP)
Temperature  
Mean Temperature 73 °F -  
Max Temperature 86 °F 78 °F 100 °F (2012)
Min Temperature 60 °F 60 °F 52 °F (1997)
Cooling Degree Days 8    
Growing Degree Days 23 (Base 50)    
Moisture  
Dew Point 59 °F    
Average Humidity 61    
Maximum Humidity 83    
Minimum Humidity 37    
Precipitation  
Precipitation 0.00 in - - ()
Sea Level Pressure  
Sea Level Pressure 29.95 in    
Wind  
Wind Speed 6 mph (South)    
Max Wind Speed 14 mph    
Max Gust Speed 20 mph    
Visibility 10 miles    
Events      
Averages and records for this station are not official NWS values.
T = Trace of Precipitation, MM = Missing Value Source: NWS Daily Summary

Daily Weather History Graph

Daily Weather History Graph

Search for Another Location

Airport:

Trip Planner

Search our weather history database for the weather conditions in past years. The results will help you decide how hot, cold, wet, or windy it might be!

Date:

Astronomy

Jul. 04, 2013 Rise Set
Actual Time 5:30 AM CDT 9:00 PM CDT
Civil Twilight 4:53 AM CDT 9:37 PM CDT
Nautical Twilight 4:04 AM CDT 10:26 PM CDT
Astronomical Twilight 3:01 AM CDT 11:29 PM CDT
Moon 2:51 AM CDT (7/4) 6:02 PM CDT (7/4)
Length of Visible Light 16h 44m
Length of Day
15h 30m
Waning Crescent, 11% of the Moon is Illuminated
Jul 4
Waning Crescent
Jul 8
New
Jul 15
First Quarter
Jul 22
Full
Jul 29
Last Quarter

Hourly Weather History & Observations

Time (CDT) Temp. Heat Index Dew Point Humidity Pressure Visibility Wind Dir Wind Speed Gust Speed Precip Events Conditions
12:05 AM 66.2 °F - 57.2 °F 73% 29.99 in 10.0 mi SSE 5.8 mph - N/A   Clear
12:25 AM 66.2 °F - 57.2 °F 73% 30.00 in 10.0 mi SSE 4.6 mph - N/A   Clear
12:45 AM 64.4 °F - 57.2 °F 77% 29.99 in 10.0 mi SSE 5.8 mph - N/A   Clear
1:05 AM 66.2 °F - 57.2 °F 73% 29.99 in 10.0 mi SSE 4.6 mph - N/A   Clear
1:25 AM 64.4 °F - 57.2 °F 77% 29.99 in 10.0 mi SSE 4.6 mph - N/A   Clear
1:45 AM 64.4 °F - 57.2 °F 77% 29.99 in 10.0 mi South 4.6 mph - N/A   Clear
2:05 AM 64.4 °F - 57.2 °F 77% 29.98 in 10.0 mi SSE 4.6 mph - N/A   Clear
2:25 AM 64.4 °F - 57.2 °F 77% 29.99 in 10.0 mi South 3.5 mph - N/A   Clear
2:45 AM 62.6 °F - 55.4 °F 77% 29.98 in 10.0 mi South 5.8 mph - N/A   Clear
3:05 AM 62.6 °F - 57.2 °F 82% 29.98 in 10.0 mi South 3.5 mph - N/A   Clear
3:25 AM 62.6 °F - 55.4 °F 77% 29.97 in 10.0 mi Calm Calm - N/A   Clear
3:45 AM 60.8 °F - 55.4 °F 82% 29.98 in 10.0 mi South 3.5 mph - N/A   Clear
4:05 AM 62.6 °F - 55.4 °F 77% 29.97 in 10.0 mi Calm Calm - N/A   Clear
4:25 AM 62.6 °F - 55.4 °F 77% 29.98 in 10.0 mi Calm Calm - N/A   Clear
4:45 AM 60.8 °F - 55.4 °F 82% 29.98 in 10.0 mi Calm Calm - N/A   Clear
5:05 AM 60.8 °F - 55.4 °F 82% 29.98 in 10.0 mi South 3.5 mph - N/A   Clear
5:25 AM 62.6 °F - 55.4 °F 77% 29.98 in 10.0 mi SSE 3.5 mph - N/A   Scattered Clouds
5:45 AM 62.6 °F - 57.2 °F 82% 29.98 in 10.0 mi SSE 3.5 mph - N/A   Mostly Cloudy
6:05 AM 62.6 °F - 57.2 °F 82% 29.98 in 10.0 mi SSE 3.5 mph - N/A   Mostly Cloudy
6:25 AM 64.4 °F - 57.2 °F 77% 29.98 in 10.0 mi South 5.8 mph - N/A   Mostly Cloudy
6:45 AM 64.4 °F - 57.2 °F 77% 29.98 in 10.0 mi South 5.8 mph - N/A   Scattered Clouds
7:05 AM 64.4 °F - 59.0 °F 83% 29.99 in 10.0 mi South 5.8 mph - N/A   Scattered Clouds
7:25 AM 64.4 °F - 59.0 °F 83% 29.99 in 10.0 mi South 5.8 mph - N/A   Scattered Clouds
7:45 AM 66.2 °F - 60.8 °F 83% 29.99 in 10.0 mi South 6.9 mph - N/A   Scattered Clouds
8:05 AM 68.0 °F - 60.8 °F 78% 29.99 in 10.0 mi South 5.8 mph - N/A   Scattered Clouds
8:25 AM 69.8 °F - 60.8 °F 73% 29.99 in 10.0 mi South 8.1 mph - N/A   Mostly Cloudy
8:45 AM 69.8 °F - 60.8 °F 73% 29.99 in 10.0 mi SSW 6.9 mph - N/A   Mostly Cloudy
9:05 AM 69.8 °F - 60.8 °F 73% 29.99 in 10.0 mi SSW 6.9 mph - N/A   Scattered Clouds
9:25 AM 71.6 °F - 60.8 °F 69% 29.99 in 10.0 mi South 9.2 mph - N/A   Clear
9:45 AM 73.4 °F - 62.6 °F 69% 29.98 in 10.0 mi South 6.9 mph - N/A   Clear
10:05 AM 75.2 °F - 62.6 °F 65% 29.97 in 10.0 mi SSW 5.8 mph - N/A   Clear
10:25 AM 75.2 °F - 62.6 °F 65% 29.97 in 10.0 mi South 8.1 mph - N/A   Clear
10:45 AM 77.0 °F - 62.6 °F 61% 29.97 in 10.0 mi South 8.1 mph - N/A   Clear
11:05 AM 78.8 °F - 62.6 °F 57% 29.97 in 10.0 mi South 11.5 mph - N/A   Clear
11:25 AM 78.8 °F - 64.4 °F 61% 29.97 in 10.0 mi SSW 9.2 mph - N/A   Scattered Clouds
11:45 AM 78.8 °F - 64.4 °F 61% 29.97 in 10.0 mi South 9.2 mph - N/A   Scattered Clouds
12:05 PM 80.6 °F 81.8 °F 62.6 °F 54% 29.96 in 10.0 mi South 5.8 mph - N/A   Clear
12:25 PM 82.4 °F 83.9 °F 64.4 °F 54% 29.96 in 10.0 mi South 9.2 mph - N/A   Clear
12:45 PM 82.4 °F 83.4 °F 62.6 °F 51% 29.96 in 10.0 mi SSW 8.1 mph - N/A   Clear
1:05 PM 82.4 °F 83.4 °F 62.6 °F 51% 29.95 in 10.0 mi South 9.2 mph - N/A   Clear
1:25 PM 84.2 °F 85.0 °F 62.6 °F 48% 29.94 in 10.0 mi South 12.7 mph - N/A   Clear
1:45 PM 84.2 °F 84.4 °F 60.8 °F 45% 29.94 in 10.0 mi SSE 12.7 mph 17.3 mph N/A   Scattered Clouds
2:05 PM 84.2 °F 85.0 °F 62.6 °F 48% 29.93 in 10.0 mi SSW 12.7 mph - N/A   Scattered Clouds
2:25 PM 86.0 °F 86.1 °F 60.8 °F 43% 29.93 in 10.0 mi South 12.7 mph 17.3 mph N/A   Mostly Cloudy
2:45 PM 86.0 °F 86.1 °F 60.8 °F 43% 29.92 in 10.0 mi SW 11.5 mph - N/A   Scattered Clouds
3:05 PM 86.0 °F 86.1 °F 60.8 °F 43% 29.92 in 10.0 mi SSW 10.4 mph 17.3 mph N/A   Clear
3:25 PM 86.0 °F 85.4 °F 59.0 °F 40% 29.92 in 10.0 mi South 11.5 mph 18.4 mph N/A   Scattered Clouds
3:45 PM 86.0 °F 86.1 °F 60.8 °F 43% 29.92 in 10.0 mi South 12.7 mph - N/A   Scattered Clouds
4:05 PM 86.0 °F 86.1 °F 60.8 °F 43% 29.92 in 10.0 mi South 12.7 mph - N/A   Scattered Clouds
4:25 PM 86.0 °F 85.4 °F 59.0 °F 40% 29.92 in 10.0 mi South 11.5 mph - N/A   Clear
4:45 PM 86.0 °F 84.9 °F 57.2 °F 37% 29.92 in 10.0 mi South 12.7 mph - N/A   Clear
5:05 PM 86.0 °F 85.4 °F 59.0 °F 40% 29.92 in 10.0 mi South 13.8 mph 19.6 mph N/A   Clear
5:25 PM 86.0 °F 85.4 °F 59.0 °F 40% 29.91 in 10.0 mi South 12.7 mph 19.6 mph N/A   Clear
5:45 PM 86.0 °F 84.9 °F 57.2 °F 37% 29.91 in 10.0 mi South 13.8 mph - N/A   Clear
6:05 PM 84.2 °F 83.8 °F 59.0 °F 42% 29.90 in 10.0 mi SSE 11.5 mph 17.3 mph N/A   Clear
6:25 PM 84.2 °F 83.8 °F 59.0 °F 42% 29.90 in 10.0 mi South 12.7 mph - N/A   Clear
6:45 PM 84.2 °F 83.8 °F 59.0 °F 42% 29.90 in 10.0 mi South 9.2 mph - N/A   Clear
7:05 PM 84.2 °F 83.8 °F 59.0 °F 42% 29.90 in 10.0 mi South 9.2 mph - N/A   Clear
7:25 PM 82.4 °F 82.5 °F 59.0 °F 45% 29.89 in 10.0 mi SSE 6.9 mph - N/A   Clear
7:45 PM 82.4 °F 82.5 °F 59.0 °F 45% 29.89 in 10.0 mi SSE 6.9 mph - N/A   Clear
8:05 PM 80.6 °F 81.5 °F 60.8 °F 51% 29.89 in 10.0 mi SE 5.8 mph - N/A   Clear
8:25 PM 78.8 °F - 60.8 °F 54% 29.89 in 10.0 mi SSE 5.8 mph - N/A   Clear
8:45 PM 78.8 °F - 59.0 °F 51% 29.90 in 10.0 mi SSE 5.8 mph - N/A   Clear
9:05 PM 77.0 °F - 59.0 °F 54% 29.90 in 10.0 mi SSE 6.9 mph - N/A   Clear
9:25 PM 77.0 °F - 59.0 °F 54% 29.90 in 10.0 mi SSE 6.9 mph - N/A   Clear
9:45 PM 75.2 °F - 59.0 °F 57% 29.90 in 10.0 mi SSE 6.9 mph - N/A   Clear
10:05 PM 75.2 °F - 59.0 °F 57% 29.91 in 10.0 mi SSE 6.9 mph - N/A   Clear
10:25 PM 75.2 °F - 59.0 °F 57% 29.91 in 10.0 mi SSE 8.1 mph - N/A   Clear
10:45 PM 73.4 °F - 59.0 °F 61% 29.92 in 10.0 mi South 8.1 mph - N/A   Clear
11:05 PM 73.4 °F - 59.0 °F 61% 29.92 in 10.0 mi South 8.1 mph - N/A   Clear
11:25 PM 73.4 °F - 59.0 °F 61% 29.92 in 10.0 mi South 8.1 mph - N/A   Clear
11:45 PM 73.4 °F - 59.0 °F 61% 29.92 in 10.0 mi South 9.2 mph - N/A   Clear